Location: Newark
(44.3248°N, 23.7839°E)
Time: 22:36:50
(UTC+00:00)

PCSat - Pass Details

Date: 19 April 2024
Orbit: 783 x 792 km, 67.1° (Epoch: 20 May)

Event Time Altitude Azimuth Distance (km) Brightness Sun altitude
Rises 20:45:53 0° 282° (WNW) 3,283 13.3 -29.8°
Reaches altitude 10° 20:50:39 10° 319° (NW) 2,361 12.9 -30.2°
Maximum altitude 20:51:53 11° 333° (NNW) 2,313 12.9 -30.3°
Drops below altitude 10° 20:53:07 10° 346° (NNW) 2,364 12.9 -30.4°
Sets 20:57:55 0° 24° (NNE) 3,299 13.3 -30.8°
